Location: York
(31.8935°S, 116.7682°E)
Time: 18:20:00
(UTC+08:00)

Transit 4A - Visible Passes

Search period start: 15 June 2021 00:00
Search period end: 25 June 2021 00:00
Orbit: 872 x 973 km, 66.8° (Epoch: 14 June)

Date Brightness Start Highest point End Pass type
(mag) Time Alt. Az. Time Alt. Az. Time Alt. Az.
16 Jun 10.3 06:21:20 10° SSE 06:24:42 14° SE 06:28:03 10° E visible
17 Jun 10.1 06:29:36 10° S 06:34:23 21° SE 06:39:06 10° E visible
18 Jun 9.6 06:38:19 10° S 06:43:58 31° ESE 06:49:30 10° ENE visible
19 Jun 9.0 06:47:16 10° SSW 06:53:26 46° ESE 06:59:28 10° NE visible
20 Jun 10.5 05:13:40 10° SSE 05:15:19 11° SE 05:16:58 10° ESE visible
21 Jun 10.3 05:21:07 10° SSE 05:25:05 17° SE 05:28:59 10° E visible
22 Jun 9.9 05:29:35 10° S 05:34:43 24° SE 05:39:45 10° ENE visible
23 Jun 9.3 05:38:24 10° S 05:44:16 36° ESE 05:50:00 10° ENE visible
23 Jun 10.3 20:39:22 10° NNW 20:39:53 13° NNW 20:39:53 13° NNW visible
24 Jun 8.7 05:47:24 10° SSW 05:53:42 54° ESE 05:59:50 10° NE visible
24 Jun 9.5 19:04:13 10° NNE 19:06:24 18° NE 19:06:24 18° NE visible
24 Jun 10.3 20:48:59 10° NW 20:49:59 15° NW 20:49:59 15° NW visible
